Le nostre stazioni meteo in Italia

Pubblicità
Il mio iltempo24.it
Monte Settepani, Italia (16111): Temperatura & dewpoint: 14.01.2019 07:00:00 - 20.01.2019 07:00:00 (CET)Monte Settepani, Italia (16111): precipitazioni: 14.01.2019 07:00:00 - 20.01.2019 07:00:00 (CET)
Data & Tempo tt [°C] td [°C] rr [mm]
20.01.2019 07:00:00 - - -
20.01.2019 06:00:00 -5,7 - -
20.01.2019 05:00:00 -5,6 -5,9 -
20.01.2019 04:00:00 -5,4 -5,5 -
20.01.2019 03:00:00 -5,4 -5,5 -
20.01.2019 02:00:00 -5,6 -5,9 -
20.01.2019 01:00:00 -5,4 -5,5 0,0
20.01.2019 00:00:00 -5,4 -5,5 -
19.01.2019 23:00:00 -5,4 -5,5 -
19.01.2019 22:00:00 -5,3 -5,4 -
19.01.2019 21:00:00 -5,1 - -
19.01.2019 20:00:00 -5,0 - -
19.01.2019 19:00:00 -5,0 - 0,0
19.01.2019 18:00:00 -4,8 -4,8 -
19.01.2019 17:00:00 -4,5 -4,5 -
19.01.2019 16:00:00 -4,1 -4,1 -
19.01.2019 15:00:00 -3,9 -3,9 -
19.01.2019 14:00:00 -3,8 -3,8 -
19.01.2019 13:00:00 -3,9 - 0,0
19.01.2019 12:00:00 -3,9 -3,9 -
19.01.2019 11:00:00 -3,9 -3,9 -
19.01.2019 10:00:00 -4,0 -4,0 -
19.01.2019 09:00:00 -3,7 -3,7 -
19.01.2019 08:00:00 -3,7 -3,7 -
19.01.2019 07:00:00 -3,7 -3,7 0,0
19.01.2019 06:00:00 -3,6 -3,6 -
19.01.2019 05:00:00 -3,8 -3,8 -
19.01.2019 04:00:00 -3,7 -3,7 -
19.01.2019 03:00:00 -3,8 -3,8 -
19.01.2019 02:00:00 -4,3 -4,7 -
19.01.2019 01:00:00 -4,7 -8,3 0,0
19.01.2019 00:00:00 -3,6 -8,5 -
18.01.2019 23:00:00 -2,9 - -
18.01.2019 22:00:00 -2,6 -7,8 -
18.01.2019 21:00:00 -2,0 -8,2 -
18.01.2019 20:00:00 -1,9 -10,3 -
18.01.2019 19:00:00 -2,0 -11,7 0,0
18.01.2019 18:00:00 -1,0 -12,7 -
18.01.2019 17:00:00 -0,5 -12,0 -
18.01.2019 16:00:00 -0,1 -11,0 -
18.01.2019 15:00:00 0,4 -9,7 -
18.01.2019 14:00:00 1,2 -9,8 -
18.01.2019 13:00:00 1,2 -9,6 0,0
18.01.2019 12:00:00 0,5 - -
18.01.2019 11:00:00 -0,2 -9,2 -
18.01.2019 10:00:00 -0,7 -9,5 -
18.01.2019 09:00:00 -1,3 - -
18.01.2019 08:00:00 -1,6 -7,8 -
18.01.2019 07:00:00 -1,0 -9,5 0,0
18.01.2019 06:00:00 -0,9 -7,8 -
18.01.2019 05:00:00 -0,5 -7,2 -
18.01.2019 04:00:00 -0,1 -8,2 -
18.01.2019 03:00:00 -0,2 -5,3 -
18.01.2019 02:00:00 -0,1 -4,1 -
18.01.2019 01:00:00 0,0 -2,9 0,0
18.01.2019 00:00:00 -0,6 -1,9 -
17.01.2019 23:00:00 -0,5 -1,8 -
17.01.2019 22:00:00 -0,7 -1,3 -
17.01.2019 21:00:00 -0,5 -0,9 -
17.01.2019 20:00:00 0,5 0,5 -
17.01.2019 19:00:00 1,2 1,2 0,0
17.01.2019 18:00:00 0,8 0,8 -
17.01.2019 17:00:00 2,1 2,1 -
17.01.2019 16:00:00 2,5 2,5 -
17.01.2019 15:00:00 2,8 2,8 -
17.01.2019 14:00:00 2,1 2,1 -
17.01.2019 13:00:00 1,9 - 0,0
17.01.2019 12:00:00 3,4 3,4 -
17.01.2019 11:00:00 2,4 - -
17.01.2019 10:00:00 -0,1 -0,1 -
17.01.2019 09:00:00 -0,8 -0,8 -
17.01.2019 08:00:00 -0,3 - -
17.01.2019 07:00:00 -0,7 -0,7 0,0
17.01.2019 06:00:00 -0,3 -0,3 -
17.01.2019 05:00:00 0,1 0,1 -
17.01.2019 04:00:00 0,0 0,0 -
17.01.2019 03:00:00 0,6 0,6 -
17.01.2019 02:00:00 0,9 0,9 -
17.01.2019 01:00:00 0,9 0,9 0,0
17.01.2019 00:00:00 1,0 1,0 -
16.01.2019 23:00:00 1,5 1,5 -
16.01.2019 22:00:00 1,2 1,2 -
16.01.2019 21:00:00 1,1 1,1 -
16.01.2019 20:00:00 1,5 1,5 -
16.01.2019 19:00:00 1,6 1,6 0,0
16.01.2019 18:00:00 1,7 1,7 -
16.01.2019 17:00:00 1,9 1,9 -
16.01.2019 16:00:00 2,1 2,1 -
16.01.2019 15:00:00 2,3 2,3 -
16.01.2019 14:00:00 3,4 - -
16.01.2019 13:00:00 3,6 2,2 0,0
16.01.2019 12:00:00 2,9 - -
16.01.2019 11:00:00 1,5 - -
16.01.2019 10:00:00 1,1 1,1 -
16.01.2019 09:00:00 0,4 0,4 -
16.01.2019 08:00:00 0,1 0,1 -
16.01.2019 07:00:00 0,5 -0,4 0,0
16.01.2019 06:00:00 1,3 -2,7 -
16.01.2019 05:00:00 2,2 - -
16.01.2019 04:00:00 2,2 -6,0 -
16.01.2019 03:00:00 2,3 -6,9 -
16.01.2019 02:00:00 1,9 -5,4 -
16.01.2019 01:00:00 2,1 -5,9 0,0
16.01.2019 00:00:00 2,1 - -
15.01.2019 23:00:00 1,1 -3,6 -
15.01.2019 22:00:00 1,1 -3,5 -
15.01.2019 21:00:00 0,1 0,1 -
15.01.2019 20:00:00 0,6 0,6 -
15.01.2019 19:00:00 0,5 0,4 0,0
15.01.2019 18:00:00 0,8 0,4 -
15.01.2019 17:00:00 1,8 0,5 -
15.01.2019 16:00:00 3,2 0,2 -
15.01.2019 15:00:00 3,7 -1,9 -
15.01.2019 14:00:00 4,4 -5,8 -
15.01.2019 13:00:00 5,4 -6,3 0,0
15.01.2019 12:00:00 5,2 -9,2 -
15.01.2019 11:00:00 4,4 -6,9 -
15.01.2019 10:00:00 3,3 -4,3 -
15.01.2019 09:00:00 1,9 -9,8 -
15.01.2019 08:00:00 1,0 -12,2 -
15.01.2019 07:00:00 0,4 -11,5 0,0
15.01.2019 06:00:00 0,1 -10,8 -
15.01.2019 05:00:00 0,3 -10,7 -
15.01.2019 04:00:00 0,1 -10,6 -
15.01.2019 03:00:00 0,2 -10,2 -
15.01.2019 02:00:00 1,0 -10,6 -
15.01.2019 01:00:00 1,5 - 0,0
15.01.2019 00:00:00 1,8 -9,9 -
14.01.2019 23:00:00 2,4 -10,3 -
14.01.2019 22:00:00 2,7 -10,0 -
14.01.2019 21:00:00 3,2 -10,2 -
14.01.2019 20:00:00 3,9 -6,2 -
14.01.2019 19:00:00 4,1 -6,6 0,0
14.01.2019 18:00:00 4,6 -7,0 -
14.01.2019 17:00:00 6,2 -7,6 -
14.01.2019 16:00:00 6,9 - -
14.01.2019 15:00:00 7,3 -4,3 -
14.01.2019 14:00:00 5,8 -3,2 -
14.01.2019 13:00:00 5,3 -1,9 -
14.01.2019 12:00:00 6,3 -4,6 -
14.01.2019 11:00:00 7,0 -5,8 -
14.01.2019 10:00:00 6,6 - -
14.01.2019 09:00:00 6,1 -7,6 -
14.01.2019 08:00:00 5,7 -7,3 -
14.01.2019 07:00:00 5,6 -5,0 0,0

tt = Temperatura
td = dewpoint
rr = precipitazioni

Stazioni seguenti

WeatherPro
AMSI
MeteoEarth